Location: Newark
(51.3000°N, 178.2000°W)
Time: 01:54:43
(UTC+00:00)

ISS - Pass Details

Date: 15 May 2021
Orbit: 417 x 422 km, 51.6° (Epoch: 15 June)

Event Time Altitude Azimuth Distance (km) Brightness Sun altitude
Rises 14:01:45 0° 284° (WNW) 2,375 -0.1 -13.9°
Reaches altitude 10° 14:03:56 10° 277° (W) 1,509 -1.2 -13.7°
Maximum altitude 14:07:07 40° 207° (SSW) 633 -3.4 -13.5°
Drops below altitude 10° 14:10:19 10° 136° (SE) 1,505 -1.1 -13.2°
Sets 14:12:29 0° 128° (SE) 2,367 0.0 -13.0°
